Weather History for Spokane Felts, WA

Change the Weather History Date:

Tuesday, November 20, 2012

  Actual Average Record
Temperature  
Mean Temperature 48 °F 36 °F  
Max Temperature 52 °F 42 °F 60 °F (2002)
Min Temperature 43 °F 30 °F 21 °F (2000)
Degree Days  
Heating Degree Days 17 29  
Month to date heating degree days 447 523  
Since 1 July heating degree days 1006 1260  
Cooling Degree Days 0 0  
Month to date cooling degree days 0 0  
Year to date cooling degree days 509 406  
Moisture  
Dew Point 43 °F    
Average Humidity 82    
Maximum Humidity 93    
Minimum Humidity 71    
Precipitation  
Precipitation 0.36 in 0.07 in 0.61 in (1998)
Month to date precipitation 2.41 1.43  
Year to date precipitation 18.00 14.38  
Sea Level Pressure  
Sea Level Pressure 29.75 in    
Wind  
Wind Speed 5 mph (SSE)    
Max Wind Speed 18 mph    
Max Gust Speed 23 mph    
Visibility 9 miles    
Events Rain    
T = Trace of Precipitation, MM = Missing Value Source: NWS Daily Summary

Daily Weather History Graph

Daily Weather History Graph

Search for Another Location

Airport:

Trip Planner

Search our weather history database for the weather conditions in past years. The results will help you decide how hot, cold, wet, or windy it might be!

Date:

Astronomy

Nov. 20, 2012 Rise Set
Actual Time 7:02 AM PST 4:06 PM PST
Civil Twilight 6:28 AM PST 4:41 PM PST
Nautical Twilight 5:50 AM PST 5:19 PM PST
Astronomical Twilight 5:14 AM PST 5:55 PM PST
Moon 12:23 PM PST (11/20) No Moon Set
Length of Visible Light 10h 12m
Length of Day
9h 04m
First Quarter, 52% of the Moon is Illuminated
Nov 20
First Quarter
Nov 28
Full
Dec 6
Last Quarter
Dec 13
New
Dec 19
First Quarter

Hourly Weather History & Observations

Time (PST) Temp. Windchill Dew Point Humidity Pressure Visibility Wind Dir Wind Speed Gust Speed Precip Events Conditions
12:53 AM 48.0 °F - 42.1 °F 80% 29.81 in 7.0 mi SW 16.1 mph 23.0 mph 0.06 in Rain Rain
1:42 AM 46.4 °F 43.5 °F 42.8 °F 87% 29.80 in 10.0 mi South 5.8 mph - 0.03 in Rain Light Rain
1:53 AM 48.0 °F - 43.0 °F 83% 29.79 in 10.0 mi South 8.1 mph - 0.03 in Rain Light Rain
2:53 AM 48.0 °F - 43.0 °F 83% 29.81 in 10.0 mi SW 8.1 mph - 0.00 in   Overcast
3:53 AM 48.0 °F - 42.1 °F 80% 29.81 in 10.0 mi SSW 3.5 mph - N/A   Overcast
4:39 AM 48.2 °F - 42.8 °F 82% 29.81 in 10.0 mi South 5.8 mph - 0.00 in   Overcast
4:53 AM 48.0 °F - 42.1 °F 80% 29.82 in 10.0 mi SW 6.9 mph - 0.00 in   Overcast
5:50 AM 46.4 °F - 42.8 °F 87% 29.79 in 10.0 mi Calm Calm - 0.02 in Rain Light Rain
5:53 AM 46.9 °F - 43.0 °F 86% 29.79 in 10.0 mi Calm Calm - 0.02 in Rain Light Rain
6:00 AM 46.4 °F - 42.8 °F 87% 29.79 in 10.0 mi Calm Calm - 0.00 in   Overcast
6:53 AM 46.9 °F - 42.1 °F 83% 29.77 in 10.0 mi East 6.9 mph - 0.01 in Rain Light Rain
7:31 AM 46.4 °F 42.4 °F 42.8 °F 87% 29.77 in 10.0 mi ENE 8.1 mph - 0.00 in Rain Light Rain
7:53 AM 46.9 °F - 43.0 °F 86% 29.76 in 5.0 mi NE 6.9 mph - 0.01 in Rain Light Rain
8:53 AM 46.9 °F - 44.1 °F 90% 29.78 in 6.0 mi NE 3.5 mph - 0.04 in Rain Light Rain
9:53 AM 48.0 °F - 44.1 °F 86% 29.76 in 10.0 mi Variable 3.5 mph - 0.04 in   Overcast
10:00 AM 48.2 °F - 44.6 °F 87% 29.76 in 10.0 mi ESE 4.6 mph - N/A   Overcast
10:53 AM 48.0 °F - 44.1 °F 86% 29.73 in 10.0 mi Variable 4.6 mph - 0.00 in   Overcast
11:53 AM 48.9 °F - 43.0 °F 80% 29.72 in 7.0 mi South 3.5 mph - 0.05 in Rain Light Rain
12:53 PM 48.0 °F - 44.1 °F 86% 29.72 in 9.0 mi East 3.5 mph - 0.04 in Rain Light Rain
1:29 PM 48.2 °F - 44.6 °F 87% 29.72 in 2.5 mi Calm Calm - 0.02 in Rain Rain
1:37 PM 48.2 °F - 44.6 °F 87% 29.71 in 6.0 mi NE 3.5 mph - 0.03 in Rain Light Rain
1:53 PM 48.0 °F - 45.0 °F 89% 29.71 in 6.0 mi East 4.6 mph - 0.04 in Rain Light Rain
2:53 PM 51.1 °F - 45.0 °F 80% 29.70 in 10.0 mi ESE 6.9 mph - 0.01 in   Overcast
3:00 PM 50.0 °F - 44.6 °F 82% 29.70 in 10.0 mi SE 4.6 mph - N/A   Mostly Cloudy
3:53 PM 51.1 °F - 44.1 °F 77% 29.70 in 10.0 mi SSW 9.2 mph - 0.00 in   Mostly Cloudy
4:53 PM 50.0 °F - 43.0 °F 77% 29.70 in 10.0 mi WSW 3.5 mph - 0.00 in   Mostly Cloudy
5:53 PM 45.0 °F - 42.1 °F 90% 29.74 in 10.0 mi Calm Calm - N/A   Clear
6:53 PM 45.0 °F - 42.1 °F 90% 29.74 in 10.0 mi Calm Calm - 0.01 in   Scattered Clouds
7:53 PM 44.1 °F - 41.0 °F 89% 29.74 in 10.0 mi Calm Calm - N/A   Mostly Cloudy
8:53 PM 48.9 °F - 39.9 °F 71% 29.73 in 10.0 mi SSW 11.5 mph - N/A   Overcast
9:53 PM 46.9 °F - 37.0 °F 68% 29.73 in 10.0 mi SSW 5.8 mph - 0.00 in Rain Light Rain
10:53 PM 45.0 °F - 39.0 °F 80% 29.74 in 10.0 mi Calm Calm - 0.00 in   Overcast
11:53 PM 46.0 °F 44.8 °F 39.0 °F 76% 29.72 in 10.0 mi ENE 3.5 mph - N/A   Overcast